User: anonymous   Login
Location: Jodlow
(50.1500°N, 16.7500°E)
Time: 10:39:00
(UTC+01:00)
Language:

AIST 2D - Orbit

View from above orbital plane
View from above orbital plane
View from above satellite
View from above satellite

Ground track
Ground track

The orbit data is extracted from the following two-line orbital elements,

1 41465U 16026B   24063.87467704  .00280478  30472-4  95945-3 0  9997
2 41465  96.9490 299.0332 0001848  29.9715 330.1664 15.89710384440840
Epoch (UTC): 03 March 2024 20:59:32
Eccentricity: 0.0001848
inclination: 96.9490°
perigee height: 302 km
apogee height: 304 km
right ascension of ascending node: 299.0332°
argument of perigee: 29.9715°
revolutions per day: 15.89710384
mean anomaly at epoch: 330.1664°
orbit number at epoch: 44084

The dashed part of the orbit path shows where the satellite is in the earth's shadow,  

DLR